Miscellaneous Local Product
Issued by NWS Hastings, NE

Home | Current Version | Previous Version | Graphics & Text | Print | Product List | Glossary On
Versions: 1 2 3 4 5 6 7 8 9 10 11 12 13 14 15 16 17 18 19 20 21 22 23 24 25 26 27 28 29 30 31 32 33 34 35 36 37 38 39 40 41 42 43 44 45 46 47 48 49 50
000
AXUS43 KGID 140602
MISGRI

GID CWA HOURLY WEATHER ROUNDUP
NATIONAL WEATHER SERVICE HASTINGS NE
1200 AM CST THU DEC 14 2017

NOTE: "FAIR" INDICATES FEW OR NO CLOUDS BELOW 12,000 FEET WITH NO
SIGNIFICANT WEATHER AND/OR OBSTRUCTIONS TO VISIBILITY.

...SOUTH CENTRAL NEBRASKA...

CITY           SKY/WX    TMP DP  RH WIND       PRES   REMARKS
GRAND ISLAND   MOCLDY    31  26  82 NW9       30.05R WCI  23
KEARNEY        CLOUDY    31  25  78 N8        30.07R WCI  23
HASTINGS       CLOUDY    33  25  72 N10       30.05R WCI  25
ORD            CLOUDY    33  26  75 NW6       30.04R WCI  28
YORK           PTCLDY    28  25  86 CALM      30.03R
AURORA         CLOUDY    30  25  81 NW8       30.03S WCI  23
LEXINGTON      CLOUDY    35  23  61 NW9       30.06R WCI  28
HOLDREGE       CLOUDY    35  24  63 NW7       30.06R WCI  29
HEBRON         CLOUDY    32  26  77 NW6       30.04R WCI  26

...NEBRASKA PANHANDLE...

CITY           SKY/WX    TMP DP  RH WIND       PRES   REMARKS
CHADRON        CLOUDY    34  23  64 SW3       30.13R
ALLIANCE       CLOUDY    35  23  61 NW8       30.12R WCI  29
SCOTTSBLUFF    CLOUDY    34  29  82 NW16G22   30.16R WCI  24
SIDNEY         CLOUDY    36  18  48 N9        30.12R WCI  29

...WESTERN AND NORTH CENTRAL NEBRASKA...

CITY           SKY/WX    TMP DP  RH WIND       PRES   REMARKS
VALENTINE      PTCLDY    37  22  54 NW8       30.06R WCI  31
AINSWORTH      PTCLDY    30  26  83 NW3       30.05S
ONEILL         CLOUDY    33  27  76 NW9       30.04S WCI  26
BROKEN BOW     CLOUDY    35  24  64 N6        30.05R WCI  30
IMPERIAL       CLOUDY    37  21  52 NW8       30.11R WCI  31
NORTH PLATTE   CLOUDY    35  23  61 NW7       30.09R WCI  29
MCCOOK         MOCLDY    37  22  54 NW9       30.10R WCI  30

...EASTERN NEBRASKA...

CITY           SKY/WX    TMP DP  RH WIND       PRES   REMARKS
NORFOLK        CLOUDY    36  24  62 N18       30.00R WCI  26
SO SIOUX CITY  CLOUDY    35  28  75 N10       30.00R WCI  27
TEKAMAH        CLOUDY    36  27  69 N14       30.00R WCI  27
COLUMBUS       CLOUDY    37  25  61 NW12      30.02S WCI  29
ALBION         CLOUDY    35  27  71 NW9       30.02F WCI  28
OMAHA EPPLEY   CLOUDY    38  27  64 N10       29.99R WCI  31
OFFUTT AFB     CLOUDY    38  26  61 N13       29.99R WCI  30
MILLARD        CLOUDY    40  29  65 NW7       30.00R WCI  35
LINCOLN        CLOUDY    39  25  57 N14       30.03R WCI  31
NEBRASKA CITY  CLOUDY    39  27  63 N8        29.98S WCI  33
BEATRICE       CLOUDY    34  28  78 NW7       30.01S WCI  28
FALLS CITY     CLOUDY    39  25  57 NW8       29.98R WCI  33

...NORTHERN KANSAS...

CITY           SKY/WX    TMP DP  RH WIND       PRES   REMARKS
GOODLAND       CLOUDY    37  18  46 N9        30.11R WCI  30
HILL CITY      NOT AVBL
NORTON         CLEAR     34  18  51 NW9       30.07R WCI  26
PHILLIPSBURG   CLEAR     34  21  60 W8        30.07R WCI  27
SMITH CENTER   CLEAR     30  23  74 N8        30.06R WCI  23
HAYS           CLEAR     36  22  56 N12       30.06  WCI  28
RUSSELL        CLEAR     31  22  69 NW12      30.03R WCI  22
CONCORDIA      PTCLDY    34  26  72 N7        30.03R WCI  28
SALINA         CLEAR     33  23  66 N6        30.02R WCI  28
TOPEKA         CLEAR     35  28  75 NW5       29.99R WCI  31



USA.gov is the U.S. government's official web portal to all federal, state and local government web resources and services.